EYESAT A (AO-27)

Last updated on Tue Oct 14 2025 00:03:08 GMT+0000 (Coordinated Universal Time)

1 22825U 93061C 25286.58103418 .00000162 00000+0 78720-4 0 9997 2 22825 98.7230 348.6811 0009509 102.8305 257.3941 14.30844219671734
UTC large
Height (km)
Speed (km/s)
/
Latitude / Longitude
Inclination (degrees)
Orbital Period (minutes)
Azimuth
Elevation
Range (km)
Doppler Factor

Next 0 passes for location: London (51.5072 / 0.1276)

Sorry there are no passes over London.